When you browse on this site, cookies collect data to enhance your experience and personalize the content and advertising you see.
Visit our Privacy Policy to learn more. By continuing to use the site, you agree to this use of cookies and data.
  • In Switzerland
  • List of Countries
  • For 7 days
  • Water Temperature
  • Weather Map
  • Weather Widgets
  • user-avatar
    Login

    Hourly Weather Huntsville

    Today, 8 December, Sunday

    Time Temperature Precipitation Wind Pressure Humidity
    00:00 +10°C° 0 mm 1 mps 749 mmHg 88%
    01:00 +9°C° 0 mm 2 mps 749 mmHg 86%
    02:00 +9°C° 0 mm 2 mps 748 mmHg 85%
    03:00 +9°C° 0 mm 2 mps 748 mmHg 83%
    04:00 +9°C° 0 mm 3 mps 748 mmHg 82%
    05:00 +9°C° 0 mm 3 mps 748 mmHg 82%
    06:00 +8°C° 0 mm 4 mps 749 mmHg 81%
    07:00 +8°C° 0 mm 4 mps 749 mmHg 80%
    08:00 +9°C° 0 mm 5 mps 749 mmHg 79%
    09:00 +10°C° 0 mm 5 mps 749 mmHg 77%
    10:00 +10°C° 0 mm 5 mps 748 mmHg 77%
    11:00 +10°C° 0 mm 5 mps 748 mmHg 77%
    12:00 +10°C° 0 mm 6 mps 748 mmHg 76%
    13:00 +11°C° 0 mm 6 mps 747 mmHg 76%
    14:00 +11°C° 0 mm 6 mps 746 mmHg 76%
    15:00 +11°C° 0 mm 6 mps 746 mmHg 75%
    16:00 +11°C° 0 mm 6 mps 745 mmHg 76%
    17:00 +10°C° 0 mm 6 mps 745 mmHg 77%
    18:00 +10°C° 0 mm 6 mps 745 mmHg 79%
    19:00 +10°C° 0 mm 6 mps 745 mmHg 80%
    20:00 +11°C° 0 mm 6 mps 745 mmHg 81%
    21:00 +11°C° 0 mm 6 mps 745 mmHg 82%
    22:00 +11°C° 0.1 mm 6 mps 744 mmHg 84%
    23:00 +11°C° 0.1 mm 6 mps 744 mmHg 86%

    Tomorrow, 9 December, Monday

    Time Temperature Precipitation Wind Pressure Humidity
    00:00 +12°C° 0.1 mm 5 mps 744 mmHg 88%
    01:00 +12°C° 0 mm 5 mps 743 mmHg 89%
    02:00 +13°C° 0 mm 5 mps 743 mmHg 89%
    03:00 +13°C° 0 mm 5 mps 742 mmHg 90%
    04:00 +13°C° 0 mm 4 mps 742 mmHg 91%
    05:00 +13°C° 0 mm 4 mps 742 mmHg 92%
    06:00 +14°C° 0 mm 4 mps 742 mmHg 93%
    07:00 +14°C° 0 mm 4 mps 741 mmHg 91%
    08:00 +15°C° 0 mm 5 mps 741 mmHg 90%
    09:00 +15°C° 0 mm 5 mps 741 mmHg 89%
    10:00 +17°C° 0 mm 6 mps 740 mmHg 81%
    11:00 +18°C° 0 mm 7 mps 740 mmHg 73%
    12:00 +20°C° 0 mm 8 mps 740 mmHg 66%
    13:00 +18°C° 0 mm 7 mps 739 mmHg 70%
    14:00 +19°C° 0 mm 6 mps 739 mmHg 75%
    15:00 +17°C° 0 mm 6 mps 739 mmHg 80%
    16:00 +17°C° 0 mm 5 mps 739 mmHg 82%
    17:00 +17°C° 0 mm 5 mps 740 mmHg 85%
    18:00 +17°C° 0 mm 5 mps 740 mmHg 87%
    19:00 +17°C° 0.1 mm 5 mps 740 mmHg 88%
    20:00 +17°C° 0.1 mm 5 mps 741 mmHg 90%
    21:00 +18°C° 0.1 mm 4 mps 741 mmHg 91%
    22:00 +18°C° 0.2 mm 4 mps 741 mmHg 92%
    23:00 +18°C° 0.2 mm 4 mps 741 mmHg 94%

    Day after tomorrow, 10 December, Tuesday

    Time Temperature Precipitation Wind Pressure Humidity
    00:00 +18°C° 0.2 mm 4 mps 741 mmHg 95%
    01:00 +17°C° 0.1 mm 3 mps 741 mmHg 96%
    02:00 +17°C° 0.1 mm 3 mps 742 mmHg 96%
    03:00 +17°C° 0.1 mm 2 mps 742 mmHg 97%
    04:00 +16°C° 0.3 mm 2 mps 742 mmHg 96%
    05:00 +14°C° 0.3 mm 3 mps 743 mmHg 94%
    06:00 +13°C° 0.3 mm 3 mps 743 mmHg 93%
    07:00 +12°C° 0.2 mm 3 mps 744 mmHg 91%
    08:00 +11°C° 0.2 mm 4 mps 744 mmHg 89%
    09:00 +8°C° 0.2 mm 4 mps 745 mmHg 87%
    10:00 +8°C° 0.3 mm 4 mps 745 mmHg 86%
    11:00 +7°C° 0.3 mm 5 mps 745 mmHg 85%
    12:00 +6°C° 0.3 mm 5 mps 745 mmHg 84%
    13:00 +6°C° 0.4 mm 5 mps 745 mmHg 85%
    14:00 +5°C° 0.4 mm 5 mps 745 mmHg 86%
    15:00 +5°C° 0.4 mm 5 mps 745 mmHg 87%
    16:00 +3°C° 1.9 mm 5 mps 746 mmHg 88%
    17:00 +3°C° 1.9 mm 5 mps 747 mmHg 89%
    18:00 +3°C° 1.9 mm 4 mps 748 mmHg 90%
    19:00 +3°C° 1.2 mm 4 mps 748 mmHg 90%
    20:00 +3°C° 1.2 mm 4 mps 749 mmHg 91%
    21:00 +1°C° 1.2 mm 4 mps 749 mmHg 91%
    22:00 +1°C° 0.7 mm 4 mps 750 mmHg 91%
    23:00 0°C° 0.7 mm 5 mps 750 mmHg 91%

    11 December, Wednesday

    Time Temperature Precipitation Wind Pressure Humidity
    00:00 0°C° 0.7 mm 5 mps 750 mmHg 92%
    01:00 0°C° 0.2 mm 4 mps 750 mmHg 90%
    02:00 0°C° 0.2 mm 4 mps 750 mmHg 89%
    03:00 +1°C° 0.2 mm 3 mps 750 mmHg 87%
    04:00 +1°C° 0 mm 3 mps 750 mmHg 86%
    05:00 0°C° 0 mm 4 mps 750 mmHg 86%
    06:00 0°C° 0 mm 4 mps 750 mmHg 85%
    07:00 0°C° 0 mm 4 mps 751 mmHg 82%
    08:00 0°C° 0 mm 4 mps 752 mmHg 80%
    09:00 0°C° 0 mm 4 mps 753 mmHg 77%
    10:00 +1°C° 0 mm 4 mps 753 mmHg 74%
    11:00 +3°C° 0 mm 4 mps 752 mmHg 72%
    12:00 +4°C° 0 mm 4 mps 752 mmHg 69%
    13:00 +4°C° 0 mm 4 mps 752 mmHg 71%
    14:00 +4°C° 0 mm 4 mps 752 mmHg 73%
    15:00 +4°C° 0 mm 4 mps 751 mmHg 76%
    16:00 +3°C° 0 mm 4 mps 751 mmHg 76%
    17:00 +3°C° 0 mm 4 mps 752 mmHg 77%
    18:00 +1°C° 0 mm 4 mps 752 mmHg 78%
    19:00 +1°C° 0 mm 4 mps 752 mmHg 76%
    20:00 +2°C° 0 mm 3 mps 752 mmHg 75%
    21:00 +3°C° 0 mm 2 mps 752 mmHg 73%
    22:00 +2°C° 0 mm 3 mps 752 mmHg 72%
    23:00 +1°C° 0 mm 3 mps 752 mmHg 70%

    12 December, Thursday

    Time Temperature Precipitation Wind Pressure Humidity
    00:00 0°C° 0 mm 4 mps 752 mmHg 69%
    01:00 +1°C° 0 mm 3 mps 751 mmHg 70%
    02:00 +1°C° 0 mm 3 mps 751 mmHg 71%
    03:00 0°C° 0 mm 3 mps 751 mmHg 73%
    04:00 +1°C° 0 mm 2 mps 751 mmHg 73%
    05:00 +1°C° 0 mm 2 mps 751 mmHg 74%
    06:00 +1°C° 0 mm 2 mps 751 mmHg 75%
    07:00 +3°C° 0 mm 2 mps 752 mmHg 72%
    08:00 +4°C° 0 mm 2 mps 752 mmHg 69%
    09:00 +5°C° 0 mm 2 mps 753 mmHg 66%
    10:00 +6°C° 0 mm 2 mps 752 mmHg 66%
    11:00 +8°C° 0 mm 3 mps 752 mmHg 65%
    12:00 +9°C° 0 mm 3 mps 752 mmHg 64%
    13:00 +9°C° 0 mm 3 mps 751 mmHg 68%
    14:00 +9°C° 0 mm 3 mps 751 mmHg 72%
    15:00 +9°C° 0 mm 3 mps 750 mmHg 76%
    16:00 +8°C° 0 mm 3 mps 750 mmHg 77%
    17:00 +8°C° 0 mm 3 mps 750 mmHg 78%
    18:00 +7°C° 0 mm 4 mps 750 mmHg 79%
    19:00 +6°C° 0 mm 4 mps 750 mmHg 80%
    20:00 +6°C° 0 mm 4 mps 750 mmHg 80%
    21:00 +6°C° 0 mm 4 mps 750 mmHg 80%
    22:00 +5°C° 0 mm 4 mps 750 mmHg 79%
    23:00 +5°C° 0 mm 4 mps 749 mmHg 78%

    13 December, Friday

    Time Temperature Precipitation Wind Pressure Humidity
    00:00 +5°C° 0 mm 4 mps 749 mmHg 76%
    01:00 +4°C° 0.1 mm 4 mps 749 mmHg 78%
    02:00 +4°C° 0.1 mm 4 mps 748 mmHg 80%
    03:00 +3°C° 0.1 mm 5 mps 748 mmHg 82%
    04:00 +4°C° 0.1 mm 4 mps 748 mmHg 84%
    05:00 +4°C° 0.1 mm 4 mps 748 mmHg 85%
    06:00 +4°C° 0.1 mm 4 mps 748 mmHg 86%
    07:00 +4°C° 0.1 mm 4 mps 748 mmHg 86%
    08:00 +4°C° 0.1 mm 4 mps 748 mmHg 86%
    09:00 +5°C° 0.1 mm 4 mps 748 mmHg 86%
    10:00 +5°C° 0 mm 4 mps 747 mmHg 86%
    11:00 +6°C° 0 mm 4 mps 746 mmHg 85%
    12:00 +7°C° 0 mm 3 mps 745 mmHg 85%
    13:00 +7°C° 0.1 mm 3 mps 745 mmHg 87%
    14:00 +8°C° 0.1 mm 2 mps 744 mmHg 88%
    15:00 +8°C° 0.1 mm 2 mps 743 mmHg 90%
    16:00 +8°C° 0 mm 2 mps 743 mmHg 90%
    17:00 +7°C° 0 mm 2 mps 743 mmHg 91%
    18:00 +8°C° 0 mm 1 mps 743 mmHg 92%
    19:00 +8°C° 0.6 mm 1 mps 742 mmHg 93%
    20:00 +8°C° 0.6 mm 1 mps 742 mmHg 94%
    21:00 +7°C° 0.6 mm 0 mps 742 mmHg 96%
    22:00 +7°C° 0.9 mm 0 mps 742 mmHg 96%
    23:00 +7°C° 0.9 mm 0 mps 741 mmHg 97%
    Show more